Yosemite National Park, California, United States (95389)
Lat: 37.54N, Lon: 119.84W
Wx Zone: CAZ093
Local Info
Past Weather Observations for Sunday, September 25, 2016

NOTE: This archive is for the closest National Weather Service station to Yosemite National Park. Information may differ from the station used for current weather conditions.

Click here for Long-term Archive

Time Weather Temperature Dewpoint Humidity Pressure Winds Precip Visibility
23:53
Clear
63°F / 17°C 48°F / 9°C 59% 29.98 in
(1015 mb)
SSE 3.5 mph
(SSE 6 kph)
- 10SM
22:53
Clear
66°F / 19°C 48°F / 9°C 52% 29.98 in
(1015 mb)
Calm - 10SM
21:53
Clear
70°F / 21°C 48°F / 9°C 46% 29.98 in
(1015 mb)
Calm - 10SM
20:53
Clear
70°F / 21°C 48°F / 9°C 46% 29.98 in
(1015 mb)
Calm - 10SM
19:53
Clear
75°F / 24°C 48°F / 9°C 39% 29.98 in
(1015 mb)
Calm - 10SM
18:53
Clear
82°F / 28°C 46°F / 8°C 28% 29.98 in
(1015 mb)
NW 3.5 mph
(NW 6 kph)
- 10SM
17:53
Clear
88°F / 31°C 45°F / 7°C 22% 29.95 in
(1014 mb)
W 3.5 mph
(W 6 kph)
- 10SM
16:53
Clear
91°F / 33°C 43°F / 6°C 18% 29.95 in
(1014 mb)
Calm - 10SM
15:53
Clear
91°F / 33°C 43°F / 6°C 18% 29.98 in
(1015 mb)
SW 3.5 mph
(SW 6 kph)
- 10SM
14:53
Clear
93°F / 34°C 45°F / 7°C 19% 29.98 in
(1015 mb)
SW 5.8 mph
(SW 9 kph)
- 10SM
13:53
Clear
91°F / 33°C 45°F / 7°C 20% 30.01 in
(1016 mb)
S 4.6 mph
(S 7 kph)
- 10SM
12:53
Clear
90°F / 32°C 43°F / 6°C 20% 30.04 in
(1017 mb)
Variable 4.6 mph
(Variable 7 kph)
- 10SM
11:53
Clear
86°F / 30°C 43°F / 6°C 22% 30.04 in
(1017 mb)
S 6.9 mph
(S 11 kph)
- 10SM
10:53
Clear
82°F / 28°C 46°F / 8°C 28% 30.06 in
(1018 mb)
SSE 8.1 mph
(SSE 13 kph)
- 10SM
09:53
Clear
81°F / 27°C 46°F / 8°C 30% 30.09 in
(1019 mb)
SE 5.8 mph
(SE 9 kph)
- 10SM
08:53
Clear
75°F / 24°C 46°F / 8°C 36% 30.09 in
(1019 mb)
SSE 6.9 mph
(SSE 11 kph)
- 10SM
07:53
Clear
70°F / 21°C 43°F / 6°C 38% 30.09 in
(1019 mb)
SE 5.8 mph
(SE 9 kph)
- 10SM
06:53
Clear
61°F / 16°C 43°F / 6°C 52% 30.06 in
(1018 mb)
SE 4.6 mph
(SE 7 kph)
- 10SM
05:53
Clear
54°F / 12°C 43°F / 6°C 67% 30.04 in
(1017 mb)
SE 4.6 mph
(SE 7 kph)
- 10SM
04:53
Clear
55°F / 13°C 43°F / 6°C 63% 30.04 in
(1017 mb)
Calm - 10SM
03:53
Clear
61°F / 16°C 45°F / 7°C 55% 30.04 in
(1017 mb)
ENE 3.5 mph
(ENE 6 kph)
- 10SM
02:53
Clear
61°F / 16°C 46°F / 8°C 59% 30.04 in
(1017 mb)
E 3.5 mph
(E 6 kph)
- 10SM
01:53
Clear
63°F / 17°C 48°F / 9°C 59% 30.04 in
(1017 mb)
E 5.8 mph
(E 9 kph)
- 10SM
00:53
Clear
61°F / 16°C 46°F / 8°C 59% 30.04 in
(1017 mb)
Calm - 10SM
Time Weather Temperature Dewpoint Humidity Pressure Winds Precip Visibility


Weather for websites

WeatherForYou.com, LLC is not responsible for any damages or problems caused by this service. Current weather conditions are obtained from the closest station including government and personal stations which may have varying degrees of accuracy. Weather forecasts are derived from the NOAA NDFD. Like all things, this site belongs to Jesus Christ... He just trusts us to maintain it. If you have any questions or comments email webmaster@weatherforyou.com

Copyright © 2016, WeatherForYou.com LLC. All rights reserved.